Zurück zum Katalog

WINDS

KIZUNA

AktivKommunikationGEO
NORAD 32500·PAYLOAD·🇯🇵 Japan

Gestartet Feb 23, 2008 von Tanegashima Space Center

Loading…

TLE

AktuellSource: Space-Track

Epoche: Sep 14, 2026, 13:53 UTC

1 32500U 08007A   26257.57874103  .00000107  00000-0  00000-0 0  9990
2 32500   8.7416  61.1310 0003152 133.7508  24.7573  1.00330748 67791

Verfolge WINDS in Echtzeit mit AllMySat

Download on the App Store